Location: Unspecified
(0.0000°N, 0.0000°E)
Time: 16:04:20
(UTC+00:00)

Explorer 11/Cluster Stage 4 - Visible Passes

Search period start: 07 December 2025 00:00
Search period end: 17 December 2025 00:00
Orbit: 463 x 1181 km, 28.8° (Epoch: 06 December)

Date Brightness Start Highest point End Pass type
(mag) Time Alt. Az. Time Alt. Az. Time Alt. Az.
07 Dec 8.1 04:04:57 13° NE 04:04:57 13° NE 04:06:36 10° ENE visible
07 Dec 7.9 18:29:27 10° W 18:36:27 43° NNW 18:42:20 11° NE visible
07 Dec 9.3 20:23:10 10° NW 20:23:37 10° NW 20:23:37 10° NW visible
08 Dec 8.6 03:42:58 10° ENE 03:42:58 10° ENE 03:43:05 10° ENE visible
08 Dec 5.8 05:24:39 10° WNW 05:28:23 73° SSW 05:32:43 10° SE visible
08 Dec 8.1 18:05:27 10° W 18:12:36 43° NNW 18:18:53 10° NE visible
08 Dec 9.1 19:58:53 10° NW 20:00:52 11° NNW 20:01:33 11° NNW visible
09 Dec 5.7 05:02:14 17° WNW 05:04:54 68° SSW 05:08:59 10° SE visible
09 Dec 9.1 19:34:42 10° NW 19:37:09 12° NNW 19:39:26 10° N visible
10 Dec 5.6 04:40:12 37° W 04:41:26 63° SSW 04:45:18 10° SE visible
10 Dec 9.1 19:10:35 10° NW 19:13:22 12° NNW 19:16:02 10° N visible
11 Dec 5.8 04:18:09 57° SSW 04:18:09 57° SSW 04:21:41 10° SE visible
11 Dec 9.2 18:46:31 10° NW 18:49:35 13° NNW 18:52:31 10° N visible
12 Dec 7.3 03:56:03 29° SE 03:56:03 29° SE 03:58:05 10° SE visible
12 Dec 9.2 18:22:30 10° NW 18:25:45 13° NNW 18:28:54 10° N visible
13 Dec 8.5 03:33:56 14° SE 03:33:56 14° SE 03:34:32 10° SE visible
